Regional Weather Roundup
Issued by NWS

Home | Current Version | Previous Version | Text Only | Print | Product List | Glossary On
Versions: 1 2 3 4 5 6 7 8 9 10 11 12 13 14 15 16 17 18 19 20 21 22 23 24 25 26 27 28 29 30 31 32 33 34 35 36 37 38 39 40 41 42 43 44 45 46 47 48 49 50
000
ASUS43 KMPX 191010
RWRMN
WEATHER ROUNDUP FOR MINNESOTA
NATIONAL WEATHER SERVICE TWIN CITIES/CHANHASSEN MN
500 AM CDT FRI SEP 19 2014


NOTE: "FAIR" INDICATES FEW OR NO CLOUDS BELOW 12,000 FEET WITH NO
SIGNIFICANT WEATHER AND/OR OBSTRUCTIONS TO VISIBILITY. N/A MEANS
CURRENT SKY AND/OR WEATHER CONDITIONS ARE NOT AVAILABLE.

MNZ060>063-068>070-191100-
   Twin Cities Metro

CITY           SKY/WX    TMP DP  RH WIND       PRES   REMARKS
TWIN CITIES    MOCLDY    57  52  83 S9        29.95S
ST PAUL        PTCLDY    58  52  80 SE9       29.96F
CRYSTAL        MOCLDY    59  52  77 S8        29.92S
BLAINE         PTCLDY    61  54  77 S15       29.93S
LAKEVILLE      PTCLDY    55  52  88 S6        29.95S
EDEN PRAIRIE   PTCLDY    58  53  84 S8        29.94R
SOUTH ST PAUL  PTCLDY    58  51  77 S8        29.95S
LAKE ELMO      FAIR      57  52  82 S9        29.97S
$$
MNZ001>005-007-008-013>017-022>024-027-028-191100-
   Northwest Minnesota

CITY           SKY/WX    TMP DP  RH WIND       PRES   REMARKS
BEMIDJI        CLOUDY    60  53  77 S13G18    29.74R
HALLOCK        CLOUDY    64  59  82 S15       29.55F
ROSEAU         CLOUDY    64  55  72 S14       29.60F
WARROAD        CLOUDY    64  57  77 S12G20    29.61F
THIEF RVR FALL CLOUDY    64  55  72 S23G29    29.62F
CROOKSTON      CLOUDY    64  55  72 S22G28    29.63F
FOSSTON        CLOUDY    63  54  72 S22G29    29.69F
DETROIT LAKES  CLOUDY    63  54  72 S15       29.75F
MOORHEAD       CLOUDY    64  59  82 S13G21    29.74R
PARK RAPIDS    CLOUDY    60  51  72 S16G24    29.79F
MAHNOMEN       FAIR      63  55  76 S16G23    29.71S
$$
MNZ006-009>011-018-025>026-191100-
   North Central Minnesota

CITY           SKY/WX    TMP DP  RH WIND       PRES   REMARKS
BAUDETTE       CLOUDY    61  53  75 S14G21    29.64F
FLAG ISLAND    CLOUDY    59  55  88 S15       29.57F
INTL FALLS     CLOUDY    58  52  80 VRB7      29.70F
WASKISH        CLOUDY    63  54  72 S7G16     29.68S
BIG FORK       CLOUDY    59  52  77 S17G26    29.76F
LONGVILLE      CLOUDY    59  52  77 S14G22    29.80F
GRAND RAPIDS   CLOUDY    55  52  88 S16G23    29.82F
CRANE LAKE     CLOUDY    55  52  88 S8        29.77F
ORR            CLOUDY    57  50  77 S15G26    29.74F
COOK           CLOUDY    57  52  82 S13G20    29.81F
WALKER         PTSUNNY   59  50  71 S16G24    29.76F
$$
MNZ012-019>021-037-191100-
   Northeast Minnesota

CITY           SKY/WX    TMP DP  RH WIND       PRES   REMARKS
DULUTH         CLOUDY    53  50  89 S10       29.90F FOG
ELY            CLOUDY    54  50  87 S12G18    29.85F
HIBBING        CLOUDY    57  52  83 S7        29.86F
EVELETH        CLOUDY    54  52  94 S10       29.87F
DULUTH HARBOR  CLOUDY    54  52  94 CALM      29.92F
TWO HARBORS    CLOUDY    46  41  81 CALM      29.90F
SILVER BAY     CLOUDY    45  45 100 CALM      29.91F
GRAND MARAIS     N/A     50  46  86 CALM      29.94F
G MARAIS ARPRT FOG       46  43  87 S6        29.93F VSB 1/4
$$
MNZ029>031-032-039>041-046>048-054>057-064-191100-
   West Central Minnesota

CITY           SKY/WX    TMP DP  RH WIND       PRES   REMARKS
FERGUS FALLS   CLOUDY    63  52  67 S15G24    29.77S
WHEATON        CLOUDY    59  54  82 SE12G18   29.78R
MORRIS         CLOUDY    61  54  77 S17       29.79F
ALEXANDRIA     CLOUDY    60  53  77 S16       29.84F
ELBOW LAKE     FAIR      60  53  78 S20G25    29.77F
WADENA         CLOUDY    61  52  72 S12       29.80S
GLENWOOD       CLOUDY    59  54  82 S20G25    29.83F
APPLETON       CLOUDY    63  55  77 S8G17     29.81S
BENSON         CLOUDY    61  55  82 SW15G21   29.83S
ORTONVILLE     CLOUDY    63  55  77 S12G17    29.78F
MADISON        CLOUDY    64  57  77 S14       29.81F
WILLMAR        FAIR      59  54  82 S7        29.88R
$$
MNZ033>034-036-042>043-049>051-058-059-191100-
   Central Minnesota

CITY           SKY/WX    TMP DP  RH WIND       PRES   REMARKS
ST CLOUD       CLOUDY    62  53  72 S14       29.90S
SAUK CENTRE    PTSUNNY   58  53  82 S14       29.86S
PAYNESVILLE    CLOUDY    56  53  88 SE12G17   29.89R
AITKIN         CLOUDY    61  54  77 S14       29.85F
PINE RIVER     CLOUDY    59  52  77 S12G17    29.86F
BRAINERD       CLOUDY    57  51  80 S9        29.86F
STAPLES        CLOUDY    59  52  77 S12       29.84S
LONG PRAIRIE   MOCLDY    57  52  82 SE15G21   29.85F
LITTLE FALLS   CLOUDY    59  52  77 S10G16    29.87F
LITCHFIELD     MOCLDY    59  55  88 S6        29.89F
BUFFALO        MOCLDY    58  52  80 S7        29.92F
MAPLE LAKE     MOCLDY    59  55  85 S5        29.91F
$$
MNZ037-044-045-052-053-191100-
   East Central Minnesota

CITY           SKY/WX    TMP DP  RH WIND       PRES   REMARKS
PRINCETON      MOCLDY    59  54  82 S8        29.91F
MORA           MOCLDY    55  52  88 S6        29.92F
CAMBRIDGE      MOCLDY    61  50  67 S10       29.90F
RUSH CITY      PTCLDY    55  53  92 S5        29.93S
MOOSE LAKE     CLOUDY    55  52  88 S7G16     29.89S
HINCKLEY       FAIR      55  54  94 S9        29.92F
CLOQUET        CLOUDY    52  52 100 S5        29.90F
MCGREGOR       CLOUDY    55  54  94 S9        29.88S
$$
MNZ071>073-080-081-089-090-097-098-191100-
   Southwest Minnesota

CITY           SKY/WX    TMP DP  RH WIND       PRES   REMARKS
MONTEVIDEO     MOCLDY    63  55  77 SW8       29.84F
GRANITE FALLS  MOCLDY    61  56  84 SE12G17   29.87R
CANBY          MOCLDY    62  56  80 S14       29.83F
MARSHALL       PTCLDY    63  54  72 S16G23    29.85R
REDWOOD FALLS  CLOUDY    62  56  80 S10       29.88R
OLIVIA         CLOUDY    59  54  82 S12       29.87S
PIPESTONE      CLOUDY    61  55  82 SW20      29.87R
WINDOM         MOCLDY    63  55  77 S20G30    29.88F
WORTHINGTON    CLOUDY    59  55  88 S17G24    29.89F
JACKSON        CLOUDY    61  54  77 S17G26    29.91F
TRACY          CLEAR     62  58  86 S17G32    29.86R
SLAYTON        CLOUDY    59  56  90 S16G30    29.89R
$$
MNZ065>067-074>077-082>085-091>093-191100-
   South Central Minnesota

CITY           SKY/WX    TMP DP  RH WIND       PRES   REMARKS
MANKATO        CLEAR     55  48  76 S7        29.94S
NEW ULM        PTCLDY    59  55  88 S13       29.90F
ST JAMES       MOCLDY    61  55  82 S12G22    29.92S
FAIRMONT       MOCLDY    57  46  67 S13       29.93F
GLENCOE        PTCLDY    58  52  78 SE6       29.91F
FARIBAULT      CLEAR     61  50  67 S13       29.95F
OWATONNA       CLEAR     57  50  77 S13G20    29.96F
WASECA         CLEAR     55  48  76 S10G16    29.96F
ALBERT LEA     CLEAR     57  52  82 S10       29.98S
$$
MNZ078>079-086>088-094>096-191100-
   Southeast Minnesota

CITY           SKY/WX    TMP DP  RH WIND       PRES   REMARKS
ROCHESTER      CLEAR     54  49  83 S15       30.01F
RED WING       CLEAR     57  52  82 SE6       29.98S
STANTON        CLEAR     58  51  75 S10G17    29.95F
DODGE CENTER   CLEAR     55  50  82 S17       29.98F
WINONA         PTCLDY    55  52  88 SE6       30.03S
AUSTIN         CLEAR     54  48  82 S8        30.00F
PRESTON        CLEAR     53  52  95 S15G22    30.03F
$$
ABBREVIATIONS USED IN REMARKS
   TC - TEMPERATURES IN CELSIUS
  WCI - WIND CHILL INDEX
   HX - HEAT INDEX
  VSB - VISIBILITY
$$



USA.gov is the U.S. government's official web portal to all federal, state and local government web resources and services.